Flag for Germany Weather past 2 weeks in Sondershausen, Thuringia, Germany

Now
49 °F

Overcast.


Feels Like: 43 °F
Forecast: 38 / 45 °F
Wind: 15 mph from West

Location: Erfurt-Bindersleben

Current Time: Dec 23, 2014 at 2:11:53 AM

Latest Report: Dec 23, 2014 at 2:00 AM


Visibility: 25 mi

Pressure: 30.01 "Hg

Humidity: 78%

Dew point: 42 °F

Location of SondershausenLocation

Historic Weather in Sondershausen — Graph

°F

Sondershausen temperature yesterday

Maximum temperature yesterday: 48 °F (at 11:00 PM)
Minimum temperature yesterday: 43 °F (at 12:00 AM)
Average temperature yesterday: 45 °F

Past Weeks' High & Low Weather Summary

 TemperatureHumidityPressure
High54 °F (Dec 18, 11:00 PM)100% (Dec 13, 10:00 PM)30.44 "Hg (Dec 13, 10:00 PM)
Low25 °F (Dec 9, 5:00 AM)75% (Dec 8, 3:00 PM)29.50 "Hg (Dec 12, 5:00 PM)
Average39 °F88%29.98 "Hg
* Reported Midnight between Dec 7 and Dec 8 — Midnight between Dec 22 and Dec 23, Sondershausen, Weather by CustomWeather, © 2014

Note: Actual official high and low records may vary slightly from our data, if they occured in-between our weather recording intervals... More about our weather records

Advertising

Sondershausen weather history for previous 24 hours

 ConditionsComfort  
Time TempWeatherWind HumidityBarometerVisibility
12:00 AM
Dec 23
48 °FOvercast.14 mph82%30.03 "Hg19 mi
11:00 PM
Dec 22
48 °FOvercast.15 mph82%30.01 "Hg19 mi
10:00 PM48 °FOvercast.13 mph82%30.03 "Hg19 mi
9:00 PM48 °FOvercast.14 mph81%30.02 "Hg19 mi
8:00 PM47 °FOvercast.14 mph82%30.04 "Hg19 mi
7:00 PM47 °FOvercast.13 mph82%30.03 "Hg19 mi
6:00 PM46 °FOvercast.13 mph82%30.03 "Hg19 mi
5:00 PM46 °FOvercast.12 mph85%30.04 "Hg19 mi
4:00 PM46 °FOvercast.12 mph84%30.03 "Hg19 mi
3:00 PM46 °FOvercast.13 mph83%30.03 "Hg22 mi
2:00 PM46 °FOvercast.15 mph85%30.01 "Hg19 mi
1:00 PM45 °FOvercast.14 mph86%30.03 "Hg19 mi
12:00 PM45 °FOvercast.18 mph84%30.03 "Hg19 mi
11:00 AM45 °FOvercast.15 mph84%30.05 "Hg25 mi
10:00 AM45 °FOvercast.15 mph84%30.06 "Hg19 mi
9:00 AM45 °FOvercast.16 mph82%30.05 "Hg19 mi
8:00 AM44 °FOvercast.14 mph84%30.06 "Hg19 mi
7:00 AM44 °FOvercast.16 mph85%30.04 "Hg19 mi
6:00 AM44 °FOvercast.14 mph84%30.06 "Hg19 mi
5:00 AM44 °FOvercast.12 mph83%30.10 "Hg19 mi
4:00 AM43 °FOvercast.12 mph84%30.11 "Hg19 mi
3:00 AM43 °FOvercast.16 mph82%30.12 "Hg19 mi
2:00 AM43 °FOvercast.17 mph81%30.11 "Hg19 mi
Weather by CustomWeather, © 2014

See weather overviewHow to use our weather pages